Wind_Speed
2 1 2 3 4 5 6 7 8 9 11 11 11 11 11 11 10 11 11 12 12 12 12 11 11 10 10 10 9 9 9 9 9 9 11 12 13 15 14 15 15 14 16 13 19 16 20
4 3 4 4 5 5 6 7 7 8 10 12 12 12 12 12 11 11 11 12 13 13 13 12 12 12 11 12 11 9 9 9 9 9 10 12 13 14 12 15 13 16 18 14 13 16 18
5 4 5 5 6 6 7 7 8 10 11 13 14 14 15 14 13 13 12 12 13 13 13 14 14 13 12 11 11 10 10 10 9 10 10 11 11 12 13 14 17 15 17 18 10 19 20
6 6 6 7 7 7 8 9 10 11 12 13 14 14 15 15 15 15 15 13 13 14 14 14 12 11 12 12 12 11 10 9 9 9 10 11 11 11 12 15 15 17 15 17 13 20 19
6 6 7 8 8 8 8 9 10 12 13 15 15 15 15 14 14 14 15 14 15 16 16 13 12 15 14 11 10 11 11 10 9 10 10 12 12 11 13 15 9 13 17 18 17 24 24
7 7 8 8 8 8 9 10 12 12 14 15 17 17 17 17 17 15 15 15 13 15 12 16 12 12 13 13 12 12 12 11 11 11 12 12 13 12 13 7 10 15 18 20 17 19 25
7 8 9 9 9 9 12 13 14 14 14 15 17 19 19 18 18 18 18 19 19 18 15 15 19 18 20 19 17 13 12 12 12 12 13 13 14 9 9 12 14 16 16 18 22 17 23
7 8 9 10 12 14 16 17 16 15 16 18 19 20 20 20 20 20 19 20 20 21 24 21 20 21 21 19 18 14 13 12 11 12 14 15 14 13 13 16 16 17 16 17 17 20 22
8 10 11 12 13 16 17 18 18 18 20 21 21 21 20 20 20 21 20 20 21 23 26 25 25 24 18 15 16 14 13 12 13 13 13 15 14 17 15 16 15 13 15 19 21 23 16
11 12 13 15 16 17 19 20 21 21 21 22 22 21 21 20 20 19 20 21 22 23 20 22 19 13 10 10 16 14 10 11 13 13 16 13 12 14 17 18 13 15 16 22 27 13 7
14 15 16 17 17 19 20 21 21 22 22 23 23 22 22 21 23 22 21 20 19 19 6 10 11 11 11 12 9 11 10 12 15 18 19 16 18 19 18 17 11 12 17 21 20 10 10
15 16 17 18 18 18 18 18 19 20 21 22 22 22 23 24 22 22 23 21 17 6 9 8 12 14 13 14 17 15 16 19 20 22 23 23 20 18 18 15 12 15 15 17 16 5 5
16 16 15 15 15 18 20 22 24 25 26 26 26 24 21 22 22 23 22 19 9 7 7 12 16 14 15 14 15 22 26 25 23 14 16 15 19 22 16 14 13 9 9 6 4 5 8
12 14 17 18 21 23 24 25 25 25 24 26 28 30 26 23 22 20 20 15 11 11 14 18 18 17 20 17 26 26 24 25 21 18 17 12 13 15 12 11 9 12 5 4 5 8 14
16 19 20 22 23 24 22 19 18 20 20 20 20 19 21 24 25 23 20 13 13 10 15 19 22 24 19 19 22 20 24 19 15 23 14 8 9 12 12 15 14 5 5 7 6 8 5
20 20 21 21 18 16 16 16 17 19 19 18 19 18 18 16 16 19 18 22 14 19 25 24 17 16 20 16 14 12 12 13 18 13 17 11 14 15 19 18 14 13 11 3 4 4 8
20 18 15 14 15 15 16 17 17 18 19 19 19 19 17 17 15 14 15 18 25 26 27 25 20 23 23 22 22 23 19 15 19 18 15 16 12 13 13 14 12 12 10 9 8 6 5
13 12 13 14 14 16 18 18 19 19 19 20 19 19 19 16 15 14 14 20 22 23 23 26 28 28 23 20 22 22 21 20 17 13 11 12 15 20 23 22 22 20 17 13 13 8 10
12 13 14 15 17 18 20 21 21 21 20 20 20 20 16 18 12 14 20 20 20 25 24 23 19 21 21 17 11 10 13 22 22 17 11 12 10 14 11 13 14 17 12 15 14 11 15
12 14 16 18 20 21 22 22 22 22 22 21 20 18 20 19 15 14 20 22 19 21 21 21 23 23 27 28 23 17 13 17 19 21 20 21 24 22 23 20 10 10 8 9 13 18 22
15 17 19 22 23 23 23 24 24 23 23 22 20 17 18 20 22 20 23 23 25 21 23 24 22 21 21 19 14 17 19 25 24 26 24 22 21 19 23 22 21 27 28 25 26 32 29
18 20 21 23 24 24 25 25 24 25 25 24 22 21 21 23 23 21 21 22 23 22 23 21 23 28 25 27 23 28 28 23 17 16 13 18 21 19 29 21 19 25 25 29 38 41 43
20 21 22 24 25 26 26 28 30 29 29 29 26 25 24 25 23 21 17 22 23 25 23 22 23 25 24 24 31 33 34 34 35 32 25 20 14 13 29 16 17 25 28 31 31 31 29
21 23 25 27 28 28 28 28 29 31 31 30 29 27 26 21 24 19 24 25 25 25 28 28 25 27 24 31 32 33 34 34 34 36 33 37 22 20 23 15 14 21 17 20 25 20 13
22 25 27 28 27 27 29 30 30 32 32 30 29 27 27 26 21 23 23 17 20 24 20 23 21 25 28 28 28 18 13 14 20 17 25 30 26 21 15 15 23 29 23 24 20 3 7
25 26 27 28 28 29 29 30 30 30 30 27 26 25 24 26 13 12 18 21 18 17 21 20 17 16 19 21 10 10 8 9 6 6 7 11 25 28 10 18 6 3 4 9 6 10 5
25 25 26 27 28 28 28 29 29 28 25 24 20 18 19 24 23 16 19 13 16 23 25 16 19 21 21 9 13 16 20 16 10 9 5 2 10 29 26 22 13 18 16 16 5 2 8
25 26 27 28 27 27 28 28 27 24 19 19 19 18 21 27 29 28 25 30 19 21 23 17 22 15 11 11 10 10 8 7 6 10 7 7 6 11 19 18 21 11 8 8 11 13 14
26 26 26 25 26 26 26 25 23 18 19 20 21 22 25 27 29 29 29 31 37 25 27 31 32 25 16 11 11 15 18 19 20 23 13 15 9 13 11 9 12 16 9 15 18 23 22
Wind_Direction
222 286 321 337 347 347 351 356 0 3 2 0 353 346 340 333 325 320 320 322 323 321 320 317 311 305 293 301 298 313 314 321 330 337 342 346 348 347 349 343 340 339 336 319 318 317 320
235 270 292 313 318 326 334 338 344 347 351 351 349 348 344 337 331 323 317 315 316 316 316 314 307 301 283 290 295 300 308 312 322 335 346 346 345 346 349 348 345 332 333 321 310 323 330
246 265 285 299 304 310 315 320 329 335 339 343 346 344 341 342 338 333 326 319 317 316 315 315 306 295 283 283 293 293 304 309 321 334 339 341 344 344 345 348 341 339 340 348 308 323 319
255 270 286 297 305 312 314 317 322 326 329 331 335 338 338 337 336 337 334 329 323 319 314 314 310 301 288 282 290 287 299 303 313 325 331 336 339 338 341 343 339 350 352 336 318 306 316
266 280 289 295 302 308 312 312 314 318 322 323 325 326 328 328 331 332 333 332 333 330 321 318 314 302 296 283 278 286 293 295 302 310 321 326 329 326 333 347 334 330 320 322 327 323 315
273 283 292 296 298 301 309 317 318 318 319 320 320 320 321 321 321 321 324 324 327 328 326 324 322 314 301 288 280 283 288 288 298 305 312 317 321 316 327 346 318 311 318 322 323 312 297
293 299 302 302 304 312 319 320 315 320 323 323 323 321 317 316 314 315 316 317 315 316 310 312 310 307 298 285 271 276 280 281 292 298 308 312 313 289 276 315 320 324 315 309 324 311 327
288 296 302 302 299 304 310 311 309 311 309 308 311 319 311 311 311 311 314 316 318 314 307 306 303 299 291 279 258 262 273 276 285 297 302 302 307 269 291 307 311 324 310 314 322 322 323
305 311 310 306 302 301 304 308 309 306 303 301 301 306 309 307 307 308 310 312 313 314 314 304 301 291 283 263 248 263 269 268 284 288 289 288 284 285 283 306 304 306 293 308 314 326 323
294 299 299 300 302 303 304 303 302 301 302 301 301 302 298 299 298 303 304 308 312 317 314 298 281 275 275 253 257 261 247 272 280 286 290 291 287 294 289 301 287 303 295 317 320 321 320
287 292 296 300 303 306 305 304 303 304 304 302 301 300 299 296 292 290 294 297 304 316 319 289 269 272 269 242 243 256 263 275 284 293 288 274 284 294 286 292 278 290 305 315 313 297 301
294 299 304 305 306 305 305 306 307 308 307 304 301 298 294 290 288 288 289 292 299 293 244 259 270 280 269 262 253 258 285 284 287 284 282 280 276 283 283 278 275 304 313 313 305 277 254
297 299 301 304 305 305 306 306 306 305 301 296 295 295 293 291 288 283 282 283 282 224 280 274 268 271 267 260 260 281 289 285 283 285 276 281 284 290 266 268 277 292 318 310 284 236 291
299 302 302 303 304 303 303 303 304 304 304 298 292 287 283 286 287 287 279 270 239 254 252 281 278 271 268 272 280 278 275 276 278 268 270 277 278 270 251 245 261 275 260 265 295 313 308
297 296 298 300 301 302 306 310 313 315 317 319 321 317 303 289 282 283 279 236 252 269 253 262 277 279 275 279 266 268 269 259 262 271 243 269 252 262 267 278 283 261 244 241 272 266 277
296 295 296 299 303 307 311 314 316 317 318 319 316 317 320 318 298 279 262 252 253 260 263 267 273 269 275 273 277 276 277 278 271 263 249 248 279 266 272 274 263 247 242 262 218 274 288
294 295 298 303 305 308 311 312 315 317 318 318 317 318 317 316 310 291 260 263 268 270 271 273 272 270 270 276 271 269 265 281 272 275 251 261 258 267 270 272 268 254 233 234 243 241 278
296 299 302 302 310 315 312 312 314 316 315 318 318 320 317 311 307 291 273 279 282 276 272 270 272 272 272 272 274 268 266 263 271 270 269 265 274 268 267 269 267 254 247 240 240 228 238
298 301 309 313 315 313 314 317 319 319 317 317 319 318 317 312 297 290 288 284 284 283 278 272 267 271 268 267 278 271 251 253 258 261 259 268 261 281 270 259 270 264 259 245 236 255 251
302 308 315 318 316 318 316 317 319 321 320 322 323 320 314 306 294 288 292 292 285 283 284 280 272 268 269 269 260 264 269 269 255 267 274 273 257 252 266 277 303 277 271 281 256 259 262
311 313 315 313 315 315 316 318 319 318 320 320 321 315 308 293 294 294 291 287 285 280 279 276 276 271 272 275 276 272 254 265 275 273 265 255 259 259 267 271 274 275 275 272 259 260 256
306 310 312 312 312 314 313 314 314 316 315 316 316 312 306 298 296 291 287 284 282 275 277 271 267 267 268 269 270 270 261 268 278 265 268 272 268 270 270 279 276 275 268 262 263 266 264
306 310 312 309 309 310 314 315 315 316 315 315 313 309 306 302 296 290 274 278 277 282 286 270 273 274 272 268 263 271 272 272 269 267 264 262 263 268 271 277 286 276 269 269 280 275 267
307 310 309 309 309 313 316 316 316 315 314 313 311 309 307 299 292 283 282 283 281 275 276 276 278 276 275 275 276 279 277 276 274 269 265 259 248 252 272 279 265 276 260 259 263 281 291
307 308 307 307 309 316 315 316 316 315 315 315 313 310 305 299 292 291 289 276 278 286 283 284 281 279 282 287 294 298 292 280 289 275 254 246 237 242 238 231 266 288 280 265 259 318 332
308 306 305 310 315 315 318 318 318 317 317 315 312 306 299 296 306 273 279 285 285 283 292 286 273 292 302 300 280 268 264 287 285 290 251 240 227 221 229 234 252 123 182 38 163 160 137
303 306 311 313 316 320 320 319 318 320 320 316 317 308 298 291 298 295 292 264 263 290 287 278 285 311 308 288 273 270 270 262 266 270 285 244 202 219 231 242 257 256 260 272 255 249 272
309 313 316 317 320 321 320 319 318 317 317 313 311 307 300 293 288 286 291 280 267 301 274 275 290 291 301 287 280 276 284 279 297 271 294 269 268 224 225 234 242 278 244 238 228 227 257
315 316 318 321 321 319 317 316 315 314 309 311 305 303 298 293 294 294 295 286 276 275 268 264 272 265 274 261 277 288 282 284 284 278 274 288 253 279 287 246 198 314 288 275 254 256 278
Height
3158 3158 3157 3156 3156 3155 3154 3153 3151 3150 3149 3147 3145 3143 3141 3140 3138 3136 3134 3133 3131 3129 3128 3126 3125 3123 3123 3122 3121 3119 3118 3116 3115 3113 3112 3110 3109 3107 3105 3104 3101 3099 3097 3095 3091 3088 3085
3157 3157 3157 3156 3156 3155 3154 3153 3152 3150 3148 3147 3145 3143 3141 3139 3137 3135 3133 3132 3130 3128 3126 3124 3123 3122 3121 3120 3118 3117 3116 3115 3113 3112 3110 3109 3107 3106 3103 3102 3100 3097 3094 3091 3088 3086 3082
3157 3156 3156 3155 3155 3154 3153 3153 3151 3150 3149 3147 3145 3143 3141 3139 3137 3134 3132 3130 3128 3126 3124 3123 3120 3119 3118 3119 3116 3115 3114 3113 3111 3110 3109 3108 3106 3105 3103 3100 3098 3095 3092 3087 3085 3082 3079
3156 3156 3155 3155 3154 3154 3153 3152 3151 3149 3148 3146 3144 3142 3140 3138 3136 3134 3131 3129 3127 3125 3123 3120 3118 3117 3115 3115 3114 3114 3113 3111 3110 3108 3107 3106 3104 3103 3101 3099 3096 3093 3090 3088 3086 3079 3076
3155 3155 3154 3154 3153 3152 3152 3151 3149 3148 3146 3145 3143 3141 3139 3136 3134 3132 3131 3128 3126 3124 3122 3119 3118 3115 3114 3113 3112 3111 3110 3109 3108 3106 3105 3104 3103 3101 3099 3097 3097 3093 3091 3086 3083 3076 3073
3154 3154 3154 3153 3152 3151 3150 3149 3148 3146 3144 3143 3141 3139 3137 3135 3133 3130 3128 3127 3124 3123 3121 3118 3116 3116 3113 3112 3110 3109 3108 3107 3106 3104 3103 3103 3101 3098 3096 3097 3096 3093 3089 3084 3082 3079 3072
3153 3153 3152 3152 3151 3150 3150 3148 3146 3145 3143 3141 3139 3137 3135 3133 3131 3129 3127 3125 3125 3122 3119 3117 3114 3111 3109 3108 3107 3106 3105 3104 3103 3102 3101 3100 3099 3098 3096 3094 3092 3090 3085 3082 3079 3073 3067
3151 3151 3150 3150 3149 3149 3147 3146 3144 3142 3140 3139 3137 3134 3132 3130 3129 3127 3125 3123 3120 3118 3113 3113 3110 3106 3104 3103 3103 3103 3103 3103 3101 3100 3099 3099 3096 3093 3092 3090 3088 3086 3083 3080 3075 3070 3065
3150 3149 3148 3147 3146 3145 3144 3142 3140 3139 3137 3135 3133 3131 3128 3127 3125 3124 3122 3121 3118 3115 3112 3108 3104 3101 3099 3099 3099 3100 3100 3099 3098 3096 3095 3094 3094 3090 3088 3087 3085 3084 3081 3077 3072 3066 3062
3147 3146 3146 3145 3144 3142 3140 3138 3136 3134 3132 3130 3128 3126 3125 3123 3123 3120 3119 3117 3115 3112 3107 3104 3099 3097 3096 3096 3097 3097 3096 3097 3094 3093 3091 3090 3087 3086 3085 3083 3082 3080 3077 3073 3068 3066 3063
3145 3144 3142 3141 3140 3139 3137 3135 3133 3130 3128 3125 3123 3122 3119 3118 3117 3116 3115 3113 3112 3111 3108 3100 3096 3095 3094 3095 3094 3094 3094 3092 3090 3089 3089 3087 3084 3082 3080 3079 3078 3077 3073 3069 3065 3063 3062
3141 3140 3139 3138 3136 3134 3132 3130 3128 3126 3123 3120 3117 3116 3115 3113 3111 3111 3110 3109 3109 3111 3101 3095 3093 3092 3092 3091 3090 3090 3090 3089 3087 3084 3082 3080 3079 3077 3076 3074 3074 3072 3070 3066 3062 3061 3060
3138 3136 3135 3134 3132 3130 3128 3126 3124 3121 3119 3115 3112 3110 3109 3107 3106 3105 3105 3105 3108 3106 3099 3091 3088 3088 3087 3086 3086 3086 3084 3083 3084 3081 3078 3075 3073 3072 3071 3071 3070 3069 3068 3065 3061 3057 3054
3134 3133 3132 3130 3128 3126 3123 3121 3118 3115 3112 3108 3105 3105 3103 3102 3102 3100 3100 3103 3102 3094 3095 3090 3089 3087 3085 3084 3080 3079 3078 3076 3077 3078 3076 3073 3070 3067 3066 3067 3067 3066 3066 3065 3061 3054 3052
3131 3129 3128 3126 3123 3121 3118 3116 3112 3110 3108 3104 3101 3099 3097 3096 3096 3095 3097 3097 3093 3092 3088 3085 3084 3082 3082 3080 3079 3075 3072 3071 3072 3071 3073 3069 3066 3063 3063 3062 3064 3062 3063 3062 3060 3056 3056
3127 3125 3123 3121 3118 3116 3114 3112 3109 3106 3104 3101 3098 3095 3093 3091 3089 3089 3090 3087 3087 3085 3084 3083 3081 3080 3078 3078 3076 3074 3071 3068 3065 3065 3064 3064 3062 3060 3059 3059 3059 3058 3059 3060 3058 3055 3045
3122 3120 3118 3116 3115 3112 3110 3108 3105 3102 3099 3097 3095 3092 3089 3088 3087 3085 3082 3081 3080 3080 3079 3079 3076 3074 3074 3074 3072 3071 3069 3066 3062 3061 3061 3061 3059 3056 3056 3055 3055 3054 3054 3055 3055 3053 3046
3119 3117 3115 3113 3110 3108 3106 3104 3101 3099 3097 3093 3090 3089 3086 3084 3085 3082 3079 3076 3074 3074 3074 3073 3070 3069 3067 3068 3066 3065 3064 3064 3058 3058 3057 3058 3055 3052 3051 3050 3050 3049 3049 3050 3049 3047 3045
3115 3114 3111 3109 3107 3105 3103 3100 3097 3095 3093 3090 3087 3083 3082 3081 3079 3078 3075 3072 3070 3068 3067 3066 3066 3063 3061 3061 3061 3057 3056 3055 3053 3053 3051 3053 3051 3048 3045 3046 3042 3042 3043 3043 3044 3043 3040
3112 3110 3108 3106 3104 3101 3099 3095 3093 3090 3088 3087 3084 3082 3078 3076 3074 3072 3069 3068 3066 3063 3062 3060 3058 3057 3055 3055 3056 3051 3051 3049 3048 3047 3047 3047 3046 3046 3043 3042 3043 3042 3041 3041 3042 3039 3035
3109 3107 3104 3102 3099 3096 3094 3092 3089 3087 3084 3083 3081 3078 3076 3073 3068 3068 3064 3063 3060 3059 3057 3055 3053 3051 3050 3049 3047 3046 3043 3040 3041 3040 3041 3042 3039 3041 3039 3038 3037 3034 3034 3035 3033 3029 3030
3105 3102 3100 3098 3095 3092 3089 3087 3085 3081 3079 3078 3076 3074 3071 3068 3065 3063 3057 3055 3054 3051 3051 3051 3047 3044 3045 3043 3042 3038 3036 3037 3036 3036 3036 3035 3033 3034 3028 3032 3030 3026 3025 3025 3021 3018 3018
3101 3098 3095 3093 3091 3088 3084 3081 3077 3075 3073 3070 3069 3066 3064 3061 3058 3058 3054 3049 3047 3045 3044 3042 3040 3038 3037 3035 3030 3029 3028 3026 3027 3028 3030 3030 3029 3029 3020 3027 3025 3016 3015 3012 3009 3009 3013
3097 3094 3092 3089 3086 3082 3079 3075 3072 3068 3066 3063 3060 3058 3056 3054 3051 3051 3047 3043 3041 3040 3036 3035 3034 3030 3031 3024 3022 3020 3017 3016 3016 3015 3019 3017 3022 3026 3018 3023 3017 3005 3007 3006 3004 3007 3007
3092 3089 3087 3084 3081 3075 3072 3069 3066 3062 3059 3055 3052 3050 3046 3044 3042 3042 3041 3037 3035 3033 3031 3027 3029 3025 3021 3020 3017 3013 3012 3009 3004 3003 3005 3008 3014 3017 3014 3011 3004 3002 3001 3001 3000 3005 3002
3087 3085 3082 3078 3073 3069 3065 3062 3059 3055 3052 3049 3046 3042 3039 3037 3037 3034 3035 3034 3031 3029 3027 3024 3021 3020 3018 3016 3015 3012 3008 3005 3004 3002 3000 3001 3004 3009 3008 3009 3002 2997 2996 2994 2995 2999 2998
3083 3079 3075 3070 3066 3062 3059 3055 3052 3048 3045 3043 3040 3037 3034 3030 3029 3028 3028 3028 3027 3026 3021 3020 3018 3017 3014 3013 3012 3009 3006 3006 3003 3001 3000 2999 3000 2999 3003 3003 2996 2992 2993 2993 2996 2999 2992
3076 3072 3068 3064 3059 3056 3053 3049 3045 3043 3040 3039 3038 3034 3030 3023 3022 3023 3022 3020 3021 3020 3018 3018 3015 3014 3012 3010 3009 3007 3002 3000 2999 3000 2999 2999 2997 2995 2995 2995 2994 2988 2990 2991 2990 2988 2986
3068 3065 3061 3056 3053 3050 3047 3043 3040 3038 3036 3034 3033 3030 3026 3020 3019 3018 3016 3015 3013 3014 3013 3010 3011 3011 3009 3008 3007 3004 3003 3001 3000 2998 2998 2999 2997 2994 2993 2983 2981 2984 2984 2983 2981 2982 2980